Location: ??
(36.7391°N, 127.5151°E)
Time: 10:41:36
(UTC+00:00)

GPS 2-04 Rocket1 - Pass Details

Date: 07 June 2020
Orbit: 419 x 548 km, 35.6° (Epoch: 15 July)

Event Time Altitude Azimuth Distance (km) Brightness Sun altitude
Rises 11:30:43 0° 274° (W) 2,356 7.1 -8.2°
Reaches altitude 10° 11:32:58 10° 263° (W) 1,497 5.8 -8.5°
Maximum altitude 11:35:59 30° 200° (SSW) 786 3.5 -9.0°
Enters shadow 11:38:35 13° 141° (SE) 1,359 4.2 -9.4°
